JST455 YMLT-YMML

Flight info

Callsign JST455
Flight time 0h 43m
Altitude 34000
Route MLTNE DCT BNE DCT LHD DCT FLIKI DCT EXROM DCT ONAGI DCT WAREN
Aircraft A20N/M-SDE2E3FGHIRWXY/LB1

Departure

Time 2026-04-23 07:58
Airport Launceston Airport (YMLT)

Arrival

Time 2026-04-23 08:41
Airport Melbourne Airport (YMML)
Time Latitude Longitude Altitude Speed Heading
2026-04-23 07:27 -41.54309 147.20667 563 ft 0 kts 237°
2026-04-23 07:50 -41.54308 147.20670 563 ft 2 kts 236°
2026-04-23 07:50 -41.54298 147.20687 570 ft 2 kts 223°
2026-04-23 07:51 -41.54284 147.20700 572 ft 2 kts 193°
2026-04-23 07:51 -41.54268 147.20699 569 ft 2 kts 155°
2026-04-23 07:51 -41.54258 147.20692 572 ft 1 kts 146°
2026-04-23 07:51 -41.54257 147.20691 572 ft 0 kts 146°
2026-04-23 07:55 -41.54275 147.20708 569 ft 9 kts 146°
2026-04-23 07:55 -41.54366 147.20786 571 ft 21 kts 149°
2026-04-23 07:55 -41.54512 147.20910 572 ft 28 kts 147°
2026-04-23 07:55 -41.54691 147.21062 563 ft 32 kts 147°
2026-04-23 07:56 -41.54890 147.21234 566 ft 35 kts 147°
2026-04-23 07:56 -41.55086 147.21399 560 ft 26 kts 147°
2026-04-23 07:56 -41.55202 147.21501 564 ft 8 kts 144°
2026-04-23 07:56 -41.55218 147.21524 559 ft 0 kts 128°
2026-04-23 07:57 -41.55220 147.21528 559 ft 3 kts 128°
2026-04-23 07:57 -41.55217 147.21630 560 ft 15 kts 57°
2026-04-23 07:57 -41.55127 147.21622 562 ft 15 kts 327°
2026-04-23 07:57 -41.54993 147.21512 567 ft 48 kts 327°
2026-04-23 07:58 -41.54505 147.21094 564 ft 115 kts 327°
2026-04-23 07:58 -41.53722 147.20430 864 ft 137 kts 326°
2026-04-23 07:58 -41.52921 147.19737 1554 ft 136 kts 328°
2026-04-23 07:58 -41.52119 147.19042 2221 ft 139 kts 329°
2026-04-23 07:59 -41.51299 147.18352 2905 ft 140 kts 328°
2026-04-23 07:59 -41.50443 147.17628 3482 ft 153 kts 326°
2026-04-23 07:59 -41.49522 147.16802 4061 ft 168 kts 325°
2026-04-23 07:59 -41.48563 147.15812 4734 ft 182 kts 314°
2026-04-23 08:00 -41.47552 147.14667 5438 ft 200 kts 321°
2026-04-23 08:00 -41.46367 147.13552 6154 ft 218 kts 322°
2026-04-23 08:00 -41.45065 147.12363 6739 ft 241 kts 322°
2026-04-23 08:00 -41.43644 147.11027 7461 ft 256 kts 321°
2026-04-23 08:01 -41.42186 147.09623 8397 ft 262 kts 321°
2026-04-23 08:01 -41.40690 147.08158 9308 ft 271 kts 321°
2026-04-23 08:01 -41.39154 147.06644 10227 ft 278 kts 321°
2026-04-23 08:01 -41.37538 147.05047 10728 ft 301 kts 321°
2026-04-23 08:02 -41.35789 147.03313 11101 ft 325 kts 321°
2026-04-23 08:02 -41.34045 147.01330 11806 ft 333 kts 316°
2026-04-23 08:02 -41.32290 146.99265 12666 ft 340 kts 317°
2026-04-23 08:02 -41.30498 146.97168 13512 ft 346 kts 317°
2026-04-23 08:03 -41.28677 146.95040 14341 ft 351 kts 317°
2026-04-23 08:03 -41.26830 146.92885 15121 ft 356 kts 317°
2026-04-23 08:03 -41.24956 146.90697 15891 ft 361 kts 317°
2026-04-23 08:03 -41.23059 146.88483 16657 ft 365 kts 317°
2026-04-23 08:04 -41.21161 146.86269 17403 ft 370 kts 317°
2026-04-23 08:04 -41.19214 146.84000 18155 ft 375 kts 317°
2026-04-23 08:04 -41.17242 146.81704 18871 ft 379 kts 317°
2026-04-23 08:04 -41.15245 146.79380 19502 ft 384 kts 317°
2026-04-23 08:05 -41.13227 146.77036 20142 ft 388 kts 317°
2026-04-23 08:05 -41.11181 146.74659 20761 ft 393 kts 317°
2026-04-23 08:05 -41.09103 146.72273 21388 ft 398 kts 319°
2026-04-23 08:05 -41.06838 146.70133 22009 ft 403 kts 327°
2026-04-23 08:06 -41.04341 146.68370 22613 ft 409 kts 334°
2026-04-23 08:06 -41.01726 146.66835 23210 ft 414 kts 334°
2026-04-23 08:06 -40.99078 146.65272 23805 ft 419 kts 334°
2026-04-23 08:06 -40.96408 146.63690 24327 ft 423 kts 334°
2026-04-23 08:07 -40.93708 146.62087 24856 ft 426 kts 334°
2026-04-23 08:07 -40.91028 146.60497 25352 ft 429 kts 334°
2026-04-23 08:07 -40.88294 146.58876 25855 ft 432 kts 334°
2026-04-23 08:07 -40.85538 146.57243 26342 ft 436 kts 334°
2026-04-23 08:08 -40.82758 146.55599 26806 ft 439 kts 334°
2026-04-23 08:08 -40.79953 146.53940 27277 ft 443 kts 334°
2026-04-23 08:08 -40.77129 146.52273 27725 ft 446 kts 334°
2026-04-23 08:08 -40.74281 146.50592 28168 ft 449 kts 334°
2026-04-23 08:09 -40.71418 146.48905 28600 ft 452 kts 334°
2026-04-23 08:09 -40.68535 146.47207 29008 ft 456 kts 334°
2026-04-23 08:09 -40.65635 146.45500 29408 ft 458 kts 333°
2026-04-23 08:09 -40.62711 146.43782 29799 ft 461 kts 333°
2026-04-23 08:10 -40.59770 146.42054 30173 ft 464 kts 333°
2026-04-23 08:10 -40.56810 146.40317 30534 ft 468 kts 333°
2026-04-23 08:10 -40.50819 146.36807 31155 ft 474 kts 333°
2026-04-23 08:11 -40.47798 146.35039 31473 ft 477 kts 333°
2026-04-23 08:11 -40.44764 146.33266 31845 ft 478 kts 333°
2026-04-23 08:11 -40.41761 146.31513 32252 ft 479 kts 333°
2026-04-23 08:11 -40.38715 146.29737 32647 ft 479 kts 333°
2026-04-23 08:12 -40.35669 146.27962 33048 ft 479 kts 333°
2026-04-23 08:12 -40.32620 146.26187 33437 ft 480 kts 333°
2026-04-23 08:12 -40.29565 146.24409 33816 ft 480 kts 333°
2026-04-23 08:12 -40.26510 146.22635 34199 ft 480 kts 333°
2026-04-23 08:13 -40.23460 146.20864 34542 ft 480 kts 333°
2026-04-23 08:13 -40.20408 146.19094 34881 ft 480 kts 333°
2026-04-23 08:13 -40.17356 146.17327 35205 ft 479 kts 333°
2026-04-23 08:13 -40.14312 146.15565 35352 ft 478 kts 333°
2026-04-23 08:14 -40.08231 146.12050 35372 ft 477 kts 333°
2026-04-23 08:14 -40.02150 146.08542 35373 ft 477 kts 333°
2026-04-23 08:15 -39.96184 146.04770 35374 ft 476 kts 329°
2026-04-23 08:15 -39.90299 146.00811 35373 ft 476 kts 329°
2026-04-23 08:16 -39.84441 145.96886 35368 ft 476 kts 330°
2026-04-23 08:16 -39.78544 145.92949 35370 ft 476 kts 330°
2026-04-23 08:17 -39.72639 145.89015 35365 ft 476 kts 330°
2026-04-23 08:17 -39.66741 145.85094 35364 ft 476 kts 330°
2026-04-23 08:18 -39.60842 145.81180 35367 ft 476 kts 330°
2026-04-23 08:18 -39.54938 145.77269 35371 ft 476 kts 330°
2026-04-23 08:19 -39.49034 145.73366 35366 ft 477 kts 330°
2026-04-23 08:19 -39.46078 145.71415 35224 ft 477 kts 330°
2026-04-23 08:19 -39.43121 145.69464 34985 ft 476 kts 330°
2026-04-23 08:20 -39.40165 145.67517 34743 ft 476 kts 330°
2026-04-23 08:20 -39.37206 145.65568 34502 ft 477 kts 330°
2026-04-23 08:20 -39.34249 145.63623 34173 ft 477 kts 330°
2026-04-23 08:20 -39.31286 145.61676 33547 ft 478 kts 330°
2026-04-23 08:21 -39.28355 145.59751 32709 ft 480 kts 330°
2026-04-23 08:21 -39.25371 145.57792 31762 ft 483 kts 331°
2026-04-23 08:21 -39.22366 145.55820 30769 ft 487 kts 331°
2026-04-23 08:21 -39.19337 145.53832 29691 ft 489 kts 331°
2026-04-23 08:22 -39.16321 145.51858 28718 ft 482 kts 331°
2026-04-23 08:22 -39.13348 145.49916 27671 ft 475 kts 332°
2026-04-23 08:22 -39.10422 145.48007 26665 ft 467 kts 332°
2026-04-23 08:22 -39.07544 145.46132 25679 ft 460 kts 332°
2026-04-23 08:23 -39.04708 145.44284 24727 ft 453 kts 332°
2026-04-23 08:23 -39.01915 145.42466 23789 ft 447 kts 332°
2026-04-23 08:23 -38.99161 145.40676 22770 ft 439 kts 332°
2026-04-23 08:23 -38.96455 145.38918 21817 ft 431 kts 332°
2026-04-23 08:24 -38.93805 145.37199 21044 ft 420 kts 332°
2026-04-23 08:24 -38.91242 145.35539 20486 ft 405 kts 332°
2026-04-23 08:24 -38.88797 145.33955 19924 ft 392 kts 332°
2026-04-23 08:24 -38.86394 145.32401 19365 ft 381 kts 332°
2026-04-23 08:25 -38.84051 145.30886 18809 ft 371 kts 332°
2026-04-23 08:25 -38.81772 145.29413 18239 ft 361 kts 332°
2026-04-23 08:25 -38.79556 145.27982 17717 ft 351 kts 332°
2026-04-23 08:25 -38.77330 145.26553 17196 ft 372 kts 334°
2026-04-23 08:26 -38.74864 145.25279 16633 ft 388 kts 339°
2026-04-23 08:26 -38.72323 145.24058 16052 ft 389 kts 339°
2026-04-23 08:26 -38.69786 145.22835 15482 ft 390 kts 339°
2026-04-23 08:26 -38.67291 145.21630 14987 ft 383 kts 339°
2026-04-23 08:27 -38.64839 145.20446 14718 ft 369 kts 339°
2026-04-23 08:27 -38.62473 145.19303 14480 ft 358 kts 339°
2026-04-23 08:27 -38.60130 145.18172 14245 ft 362 kts 339°
2026-04-23 08:27 -38.57775 145.17036 13994 ft 361 kts 339°
2026-04-23 08:28 -38.55430 145.15907 13731 ft 358 kts 339°
2026-04-23 08:28 -38.53100 145.14785 13463 ft 356 kts 339°
2026-04-23 08:28 -38.50786 145.13671 13205 ft 355 kts 339°
2026-04-23 08:28 -38.48478 145.12562 12942 ft 353 kts 339°
2026-04-23 08:29 -38.46187 145.11461 12697 ft 351 kts 339°
2026-04-23 08:29 -38.43907 145.10367 12448 ft 349 kts 339°
2026-04-23 08:29 -38.41637 145.09278 12195 ft 348 kts 339°
2026-04-23 08:29 -38.39375 145.08194 11939 ft 346 kts 339°
2026-04-23 08:30 -38.37122 145.07114 11565 ft 345 kts 339°
2026-04-23 08:30 -38.34860 145.06031 10639 ft 349 kts 339°
2026-04-23 08:30 -38.32610 145.04955 10221 ft 339 kts 339°
2026-04-23 08:30 -38.30500 145.03945 9996 ft 317 kts 339°
2026-04-23 08:31 -38.28501 145.02989 9778 ft 298 kts 340°
2026-04-23 08:31 -38.26581 145.02070 9317 ft 292 kts 340°
2026-04-23 08:31 -38.24712 145.01177 8981 ft 281 kts 340°
2026-04-23 08:31 -38.22847 145.00288 8857 ft 289 kts 340°
2026-04-23 08:32 -38.20972 144.99395 8728 ft 285 kts 340°
2026-04-23 08:32 -38.19117 144.98512 8471 ft 285 kts 340°
2026-04-23 08:32 -38.17263 144.97629 8110 ft 284 kts 340°
2026-04-23 08:32 -38.15430 144.96755 7858 ft 274 kts 341°
2026-04-23 08:33 -38.13697 144.95928 7634 ft 260 kts 341°
2026-04-23 08:33 -38.12009 144.95124 7164 ft 258 kts 341°
2026-04-23 08:33 -38.10331 144.94326 6694 ft 256 kts 341°
2026-04-23 08:33 -38.08667 144.93536 6354 ft 257 kts 341°
2026-04-23 08:34 -38.06981 144.92738 6000 ft 259 kts 341°
2026-04-23 08:34 -38.05312 144.91946 5789 ft 253 kts 341°
2026-04-23 08:34 -38.03674 144.91169 5489 ft 251 kts 341°
2026-04-23 08:34 -38.02055 144.90444 5186 ft 248 kts 347°
2026-04-23 08:35 -38.00378 144.90060 5001 ft 243 kts 354°
2026-04-23 08:35 -37.98675 144.89757 4974 ft 248 kts 353°
2026-04-23 08:35 -37.96970 144.89437 4974 ft 247 kts 353°
2026-04-23 08:35 -37.95269 144.89114 4878 ft 246 kts 353°
2026-04-23 08:36 -37.93585 144.88794 4529 ft 244 kts 353°
2026-04-23 08:36 -37.91906 144.88478 4054 ft 243 kts 353°
2026-04-23 08:36 -37.90235 144.88164 3604 ft 242 kts 353°
2026-04-23 08:36 -37.88604 144.87848 3395 ft 229 kts 352°
2026-04-23 08:37 -37.87104 144.87561 3252 ft 214 kts 353°
2026-04-23 08:37 -37.85657 144.87291 2951 ft 208 kts 353°
2026-04-23 08:37 -37.84227 144.87026 2599 ft 205 kts 353°
2026-04-23 08:37 -37.82808 144.86762 2503 ft 210 kts 353°
2026-04-23 08:38 -37.81371 144.86495 2501 ft 209 kts 353°
2026-04-23 08:38 -37.79957 144.86231 2490 ft 199 kts 353°
2026-04-23 08:38 -37.78636 144.85981 2470 ft 186 kts 353°
2026-04-23 08:38 -37.77370 144.85743 2283 ft 182 kts 353°
2026-04-23 08:39 -37.76160 144.85515 2074 ft 170 kts 353°
2026-04-23 08:39 -37.75034 144.85302 1819 ft 157 kts 354°
2026-04-23 08:39 -37.73988 144.85104 1585 ft 148 kts 354°
2026-04-23 08:39 -37.72999 144.84920 1374 ft 139 kts 354°
2026-04-23 08:40 -37.72052 144.84742 1131 ft 139 kts 354°
2026-04-23 08:40 -37.71093 144.84568 917 ft 138 kts 354°
2026-04-23 08:40 -37.70155 144.84382 680 ft 136 kts 352°
2026-04-23 08:40 -37.69224 144.84191 512 ft 135 kts 355°
2026-04-23 08:41 -37.68299 144.84042 360 ft 131 kts 354°
2026-04-23 08:41 -37.67737 144.83943 367 ft 110 kts 351°
2026-04-23 08:41 -37.67182 144.83839 390 ft 51 kts 351°
2026-04-23 08:41 -37.66877 144.83894 397 ft 31 kts 22°
2026-04-23 08:42 -37.66789 144.83940 396 ft 7 kts 22°
2026-04-23 08:42 -37.66732 144.84002 394 ft 9 kts 56°
2026-04-23 08:42 -37.66720 144.84056 401 ft 10 kts 89°
2026-04-23 08:42 -37.66751 144.84154 401 ft 16 kts 124°
2026-04-23 08:43 -37.66810 144.84271 401 ft 13 kts 120°
2026-04-23 08:43 -37.66813 144.84281 401 ft 0 kts 106°
2026-04-23 08:43 -37.66811 144.84284 398 ft 0 kts 74°
2026-04-23 08:43 -37.66806 144.84315 402 ft 6 kts 84°
2026-04-23 08:44 -37.66805 144.84329 399 ft 0 kts 85°
2026-04-23 08:44 -37.66805 144.84339 400 ft 0 kts 90°